Location: Candia
(43.5667°N, 13.4833°E)
Time: 04:42:40
(UTC+00:00)

Daily predictions for brighter satellites

Satellite Brightness Start Highest point End
(mag) Time Altitude Azimuth Time Altitude Azimuth Time Altitude Azimuth
SJ 16-02 2.9 00:09:53 34° NNE 00:09:53 34° NNE 00:12:25 10° NNE
Cosmos 2263 Rocket 3.4 00:14:58 31° E 00:14:58 31° E 00:19:15 10° NE
SL-16 R/B 2.9 00:09:43 10° NNW 00:13:47 47° NW 00:13:47 47° NW
Cosmos 2142 Rocket 4.5 00:17:47 79° NW 00:17:47 79° NW 00:24:01 10° N
Cosmos 1937 Rocket 4.0 00:27:08 56° ENE 00:27:08 56° ENE 00:31:37 10° NNE
SL-19 R/B 4.3 00:21:32 10° NNE 00:26:52 76° NNE 00:26:52 76° NNE
Cosmos 990 Rocket 4.4 00:29:47 60° N 00:29:47 60° N 00:34:02 10° NNE
Cosmos 2297 Rocket 3.6 00:28:55 27° WNW 00:29:23 27° NW 00:34:10 10° N
ADEOS II 3.7 00:28:41 10° NE 00:32:51 23° E 00:33:36 23° ESE
Cosmos 1455 Rocket 4.1 00:35:30 43° NE 00:35:30 43° NE 00:38:43 10° NNE
ATLAS CENTAUR R/B 3.8 00:37:35 16° E 00:37:35 16° E 00:38:52 10° ENE
USA 229 DEB 3.4 00:36:45 79° WSW 00:37:09 84° NW 00:44:02 10° NE
USA 229 3.4 00:36:53 79° WSW 00:37:16 85° NW 00:44:08 10° NE
Cosmos 2266 Rocket 4.2 00:31:09 10° N 00:37:26 64° E 00:38:25 56° ESE
UNK 4.3 00:38:59 55° NNE 00:38:59 55° NNE 00:42:51 10° N
Cosmos 1726 4.5 00:39:49 20° ENE 00:39:49 20° ENE 00:41:38 10° NE
Cosmos 1898 Rocket 3.8 00:43:57 60° NNW 00:43:57 60° NNW 00:48:30 10° NNE
NOSS 2-3 (C) 4.3 00:48:09 54° NE 00:48:09 54° NE 00:52:01 10° NE
GEOS 3 Rocket 3.8 00:42:11 10° NE 00:47:19 64° ESE 00:47:19 64° ESE
NOSS 3-1 (A) 3.1 00:48:36 87° E 00:48:36 87° E 00:54:50 10° NE
IRAS Rocket 4.1 00:49:56 90° ENE 00:49:56 90° ENE 00:55:35 10° NNW
Meteor 1-24 Rocket 4.0 00:44:46 10° NNW 00:49:07 53° NW 00:49:07 53° NW
Cosmos 1603 3.8 00:50:18 10° NNW 00:56:02 71° ENE 00:57:17 54° SE
Cosmos 1340 Rocket 3.9 01:07:07 40° N 01:07:07 40° N 01:09:45 10° N
Cosmos 1758 4.3 01:08:43 45° N 01:08:43 45° N 01:11:34 10° N
CZ-2D R/B 2.1 01:02:18 10° N 01:07:47 73° WNW 01:08:00 72° W
SL-16 R/B 2.5 01:09:25 62° WSW 01:09:50 64° WSW 01:16:04 10° NNW
Timation 1 Rocket 4.5 01:10:12 56° W 01:10:50 59° WNW 01:16:45 10° NNE
SL-24 R/B 4.4 01:12:55 71° WNW 01:12:55 71° WNW 01:17:57 10° N
Cosmos 1943 3.1 01:08:57 10° NNW 01:14:36 83° ENE 01:16:10 50° SSE
USA 215 4.2 01:09:06 10° ENE 01:14:54 33° SE 01:16:30 29° SSE
Cosmos 1655 Rocket 4.2 01:12:19 10° NNW 01:18:16 48° W 01:18:27 48° W
Cosmos 2227 Rocket 4.3 01:18:31 13° WNW 01:20:35 15° NW 01:23:44 10° N
Cosmos 1544 Rocket 4.0 01:22:37 53° NW 01:22:37 53° NW 01:26:25 10° N
Cosmos 1470 4.1 01:24:18 32° NW 01:24:18 32° NW 01:26:56 10° N
Cosmos 1953 2.6 01:23:54 66° NE 01:23:54 66° NE 01:27:31 10° NNE
IRS-1D 3.5 01:19:42 10° NNE 01:24:51 78° ESE 01:25:39 63° S
NPP 3.7 01:21:15 10° N 01:26:33 59° WNW 01:27:04 56° W
AQUA 3.9 01:29:37 10° N 01:34:17 56° WNW 01:34:26 56° W
Atlas Centaur 2 3.8 01:38:02 22° SSE 01:38:02 22° SSE 01:42:46 10° ESE
Resurs 1-4 Rocket 2.8 01:36:15 10° N 01:41:02 36° WNW 01:41:36 35° W
Cosmos 1602 Rocket 3.4 01:40:04 10° NNW 01:44:24 73° W 01:44:25 73° W
Meteor 2-21 Rocket 4.3 01:38:58 10° N 01:45:05 90° WSW 01:48:18 30° S
BREEZE-M DEB (TANK) 4.4 01:46:23 24° SE 01:47:01 25° ESE 01:52:49 10° ENE
IDEFIX/ARIANE 42P 3.6 01:45:01 10° NNE 01:49:56 40° E 01:53:20 18° SSE
Meteor 2-14 Rocket 4.3 01:44:19 10° NNW 01:50:20 68° W 01:52:41 38° SSW
Cosmos 1908 3.1 01:56:15 68° S 01:56:43 85° ESE 02:00:40 10° N
Cosmos 1048 Rocket 3.8 01:52:42 10° NNW 01:57:52 82° WSW 02:01:21 21° SSE
Cosmos 2263 Rocket 2.9 01:56:40 33° W 01:58:10 39° WNW 02:03:22 10° NNE
Cosmos 2298 Rocket 4.2 01:57:57 44° WSW 01:59:21 59° WNW 02:04:39 10° NNE
IRS-P3 4.0 01:54:27 10° NNE 01:59:50 80° WNW 02:01:52 39° SSW
Cosmos 2228 3.4 01:59:31 32° SSE 02:01:22 61° E 02:05:43 10° NNE
Meteor 1-16 Rocket 4.1 02:01:58 40° SSW 02:03:56 71° WNW 02:09:32 10° N
Meteor 1-28 Rocket 3.0 02:06:33 52° S 02:07:24 79° WSW 02:11:14 10° NNW
SL-08 R/B 3.3 02:05:26 27° S 02:08:10 76° WSW 02:13:09 10° NNW
Cosmos 1356 Rocket 3.8 02:10:31 27° SSE 02:12:35 59° E 02:16:38 10° NNE
ADEOS II 2.5 02:07:44 10° N 02:12:46 47° WNW 02:14:31 34° WSW
Cosmos 2285 Rocket 4.1 02:10:59 33° SW 02:13:48 60° WNW 02:20:03 10° NNE
Cosmos 1726 3.7 02:14:19 21° WNW 02:14:19 21° WNW 02:16:44 10° NNW
ATLAS CENTAUR R/B 1.9 02:13:46 38° W 02:14:37 43° NW 02:18:23 10° NNE
Spot 4 Rocket 4.2 02:09:28 10° NNE 02:14:39 70° ESE 02:18:02 22° S
CZ-2C R/B 3.9 02:11:10 10° NNE 02:14:46 39° E 02:17:08 18° SSE
CZ-4B R/B 4.3 02:11:25 10° N 02:15:35 31° WNW 02:16:40 28° W
Cosmos 1300 3.7 02:14:37 19° SSE 02:17:03 44° E 02:20:42 10° NNE
Cosmos 1900 4.4 02:11:56 10° NNW 02:17:07 86° ENE 02:22:16 10° SSE
Cosmos 1553 Rocket 3.9 02:15:29 26° SSW 02:19:07 77° W 02:25:18 10° N
NOSS 2-2 (C) 3.9 02:18:19 30° SSE 02:19:32 43° ESE 02:23:07 10° NE
Cosmos 1844 Rocket 2.8 02:17:42 25° SSW 02:20:58 74° ESE 02:26:33 10° NNE
ERS-2 3.9 02:18:07 10° SE 02:21:23 32° ENE 02:24:41 10° N
NOSS 8 (H) 4.1 02:24:24 56° WSW 02:24:52 70° NW 02:27:52 10° NNE
CZ-4C R/B 4.0 02:21:57 10° SSE 02:25:06 45° ENE 02:28:23 10° N
Meteor 1-11 4.2 02:21:02 10° NNW 02:26:48 83° W 02:32:27 10° S
SL-08 ROCKET BODY 4.3 02:23:58 10° N 02:30:01 82° W 02:35:55 10° S
Cosmos 1745 Rocket 3.9 02:25:30 10° N 02:31:48 85° W 02:37:58 10° S
Lacrosse 5 rocket 4.0 02:29:47 10° SSE 02:32:23 15° ESE 02:35:01 10° E
ARIANE 5 R/B 2.7 02:28:04 10° N 02:33:12 57° WNW 02:36:11 25° SW
Cosmos 1758 Rocket 4.0 02:32:32 10° NNW 02:36:33 39° W 02:38:14 27° SW
SeaSat 1 4.2 02:32:55 10° NE 02:37:07 27° ESE 02:41:18 10° SSE
Meteor 2-15 4.4 02:31:49 12° S 02:37:28 87° E 02:43:33 10° N
Cosmos 2058 Rocket 3.1 02:41:30 14° S 02:45:20 88° E 02:49:48 10° N
H-2A R/B 1.9 02:42:05 10° SSE 02:46:11 88° WSW 02:50:18 10° NNW
Cosmos 494 Rocket 4.2 02:41:14 10° NNW 02:46:12 48° WSW 02:51:10 10° S
CZ-2D R/B 4.3 02:45:00 10° NW 02:46:52 12° NW 02:48:43 10° WNW
S3M 4.1 02:45:35 15° SSW 02:50:59 61° W 02:57:21 10° N
CZ-2C R/B 3.2 02:49:21 10° NNE 02:53:49 48° E 02:58:22 10° S
Cosmos 1825 Rocket 4.3 02:51:15 10° NNW 02:55:05 31° W 02:57:30 18° SW
Landsat 5 3.3 02:51:09 10° S 02:55:08 76° WSW 02:59:18 10° NNW
Cosmos 1125 Rocket 4.5 02:54:00 18° WSW 02:57:03 32° WNW 03:01:47 10° N
USA 215 3.3 02:51:42 10° NE 02:58:15 76° NW 03:03:50 15° WSW
CZ-4B R/B 3.1 03:01:09 10° SE 03:04:05 34° ENE 03:06:59 10° N
Cosmos 1892 3.5 03:01:39 10° N 03:05:26 53° E 03:09:09 10° SSE
Cosmos 1953 Rocket 4.2 03:02:29 10° NNW 03:06:36 36° W 03:10:40 10° SSW
Cosmos 1709 Rocket 3.9 03:05:26 10° N 03:11:35 75° W 03:17:39 10° S
ALOS 4.3 03:10:00 10° NE 03:14:03 29° E 03:18:05 10° SSE
OAO 2 Rocket 4.3 03:10:54 14° WSW 03:14:43 33° S 03:19:23 10° ESE
PAYLOAD A 4.0 03:11:02 10° NNE 03:16:20 87° WNW 03:21:24 10° SSW
USA 238 DEB 4.3 03:15:24 10° NNW 03:22:38 71° NE 03:30:07 10° SE
USA 238 4.3 03:15:30 10° NNW 03:22:44 70° NE 03:30:13 10° SE
NOSS 2-2 (E) 4.3 03:22:45 11° WSW 03:25:46 31° NW 03:29:26 10° NNE
Atlas Centaur 2 3.8 03:20:39 11° SW 03:25:52 27° S 03:32:12 10° SE
NOSS 2-2 (D) 3.9 03:23:29 12° WSW 03:26:34 38° NW 03:30:16 10° NNE
CENTAUR R/B 4.0 03:21:02 10° NNW 03:28:55 57° NE 03:37:33 10° SE
IDEFIX/ARIANE 42P 3.7 03:24:58 10° N 03:29:20 28° WNW 03:33:41 10° WSW
USA 267 3.4 03:23:16 10° SE 03:29:49 84° NE 03:36:23 10° NW
ADEOS 3.9 03:26:04 10° NNE 03:31:18 73° ESE 03:36:30 10° S
Cosmos 2082 Rocket 4.3 03:29:02 10° N 03:34:07 33° NE 03:39:08 10° ESE
MSX 4.5 03:30:01 10° N 03:35:19 39° WNW 03:40:35 10° SW
Cosmos 1174 4.4 03:31:20 10° SSW 03:35:24 70° ESE 03:40:37 10° NE
PSLV R/B 3.9 03:31:59 10° N 03:36:14 51° WNW 03:40:26 10° SSW
COSMOS 2406 3.4 03:33:12 10° NNW 03:38:55 81° ENE 03:44:35 10° SSE
Cosmos 1825 3.0 03:36:21 10° N 03:40:04 55° E 03:43:45 10° SSE
ADEOS Rocket 3.8 03:32:39 10° SSE 03:40:23 85° ENE 03:48:09 10° NNW
Meteor 2-1 Rocket 4.4 03:34:50 10° S 03:40:42 84° W 03:46:41 10° N
Cosmos 2315 Rocket 4.3 03:34:35 10° SSW 03:40:43 51° WNW 03:46:56 10° N
